Wind_Speed
14 14 14 14 13 13 12 11 9 8 7 7 6 5 4 4 4 5 6 7 7 8 8 7 7 8 8 8 8 8 8 9 11 14 15 11 11 13 14 17 16 15 20 20 19 19 18 17 15 15 14 12 11 12 13 15 12 6 2 2 2 2 1 2 2 2 4 8 9 11 14 8 7 8 10 14 16 21 16 12 12 10 19 23 23 32 31 28
14 14 14 14 14 13 13 12 10 9 8 7 7 6 5 5 5 5 6 7 7 8 8 8 8 8 8 8 8 8 8 9 11 15 12 7 11 15 17 21 19 16 19 21 21 21 20 19 17 17 15 12 9 9 9 11 13 8 1 1 2 0 1 4 3 4 4 9 11 11 12 9 9 11 12 12 12 17 15 14 19 22 23 23 28 32 28 29
14 13 13 13 13 13 13 13 12 10 9 8 7 7 7 6 5 6 6 6 7 8 9 9 9 8 7 7 8 8 7 8 12 13 9 8 12 15 18 22 22 19 17 18 20 19 19 20 19 18 15 10 8 10 8 7 11 10 5 1 2 3 2 5 7 7 7 15 14 9 11 10 10 11 10 12 13 14 12 14 22 25 27 29 32 32 30 30
16 14 13 12 12 12 12 13 12 12 10 9 8 7 7 7 7 6 6 6 7 8 8 8 9 8 6 6 7 7 6 7 8 7 4 6 10 14 19 21 23 21 17 16 17 17 18 18 16 16 13 7 8 9 6 8 9 7 7 2 3 7 3 6 10 8 13 20 17 12 11 9 11 8 9 18 13 6 12 20 26 30 33 34 34 34 31 28
18 17 15 14 12 11 11 11 11 12 12 10 9 8 7 7 7 7 7 7 6 7 8 8 8 7 7 5 6 6 3 3 4 8 6 5 8 13 18 20 21 21 17 16 17 17 19 18 14 12 9 4 5 5 6 13 13 5 4 2 5 8 3 6 11 12 18 18 15 13 10 10 12 7 10 19 12 7 18 27 32 36 37 37 37 34 30 29
19 18 17 16 14 12 10 10 10 10 11 11 9 8 7 7 7 7 7 7 7 7 6 7 8 8 6 5 5 4 3 1 8 10 7 6 7 12 17 19 20 20 18 18 18 19 20 18 14 9 5 3 4 5 7 13 15 4 0 1 4 8 5 8 11 13 19 17 13 12 11 13 11 6 11 15 10 13 23 29 34 38 38 39 37 33 30 30
18 17 17 16 15 14 12 10 9 9 10 11 10 9 8 7 7 7 8 7 7 6 6 6 7 7 6 6 5 5 8 5 8 9 8 7 8 12 17 18 19 21 21 21 21 22 22 20 16 11 4 2 5 8 11 12 14 7 1 2 4 9 9 11 12 9 10 10 10 13 13 12 11 9 10 11 12 17 24 30 34 36 37 37 35 33 31 30
17 16 16 16 15 16 15 13 10 8 9 10 10 9 8 8 7 8 8 8 7 6 6 5 6 7 6 5 5 6 9 6 7 8 7 7 8 12 18 19 19 22 24 24 24 24 24 21 18 13 4 4 7 7 10 7 8 5 3 4 6 10 11 14 16 12 10 7 6 12 11 11 16 14 8 7 13 22 27 31 33 35 35 35 34 32 31 30
16 15 15 15 15 15 15 16 13 11 9 9 9 9 8 8 8 8 8 8 7 6 6 5 6 6 6 5 4 6 6 7 6 8 7 4 5 10 14 18 20 23 25 24 24 24 24 22 20 14 5 6 9 8 6 5 3 3 6 7 8 9 10 14 17 14 13 12 7 5 5 10 17 13 3 6 19 29 32 33 34 35 34 33 33 32 32 31
16 15 15 15 16 16 16 16 15 14 12 9 8 8 8 8 8 8 8 8 6 6 5 6 6 6 6 5 3 3 5 8 6 8 7 3 4 7 10 14 18 23 25 25 26 26 25 22 19 14 7 6 9 7 6 7 7 10 15 13 10 10 9 11 15 14 12 12 9 2 4 4 7 5 1 9 28 36 35 34 34 35 34 32 32 33 32 30
16 15 15 16 16 17 17 16 16 15 13 11 9 8 8 8 8 8 8 7 5 5 6 6 6 6 6 6 5 5 7 10 8 7 5 5 6 7 7 10 15 22 26 27 29 29 24 18 14 10 5 5 6 4 2 7 14 21 21 14 9 8 8 10 13 15 10 7 11 11 7 4 7 3 4 18 34 39 38 35 34 34 33 32 32 32 32 30
17 15 15 16 17 18 18 18 17 15 14 12 9 8 8 8 8 8 7 5 4 5 5 4 5 5 5 9 11 9 9 9 7 6 5 6 7 7 7 8 13 20 25 28 29 28 23 15 10 7 4 6 6 4 2 11 18 18 15 9 4 4 5 9 11 14 8 3 14 20 10 3 6 1 9 25 37 39 39 35 32 32 31 31 31 32 32 30
18 16 16 16 18 19 20 19 18 16 14 12 9 8 8 7 7 7 6 4 4 5 4 3 3 4 5 9 8 9 9 8 8 7 7 7 7 9 10 10 12 17 22 27 27 24 21 13 6 7 9 8 6 1 6 14 15 10 6 5 4 3 2 5 8 13 9 4 11 13 6 3 2 3 6 24 37 37 36 33 31 30 29 31 31 31 32 31
18 17 16 17 18 20 20 20 19 17 14 12 9 7 8 7 6 6 5 4 3 5 4 2 2 3 6 6 6 10 10 10 10 10 9 8 8 13 15 13 14 18 21 24 23 20 18 11 7 11 13 12 9 2 8 7 6 5 3 3 3 2 2 3 7 11 8 6 7 3 3 4 4 5 4 22 36 35 33 31 31 30 29 31 30 31 31 31
17 17 16 17 18 20 21 20 18 16 14 11 7 7 7 6 6 5 4 3 4 5 4 2 1 3 8 7 6 11 13 12 10 9 8 7 8 13 17 18 17 19 22 23 21 17 15 10 9 10 12 11 8 2 5 2 2 2 3 1 0 2 3 3 7 8 5 8 8 2 3 3 5 7 6 21 33 32 31 30 30 30 30 31 30 30 31 31
16 16 16 16 18 20 21 20 18 16 13 10 7 7 6 6 5 5 4 4 5 5 3 2 1 4 7 5 6 11 14 12 6 6 8 7 7 11 16 18 17 19 21 22 19 15 13 10 10 10 10 5 3 4 4 2 1 1 2 2 2 3 2 3 6 5 4 8 6 2 4 3 4 9 11 22 30 30 29 28 29 29 30 32 31 30 30 30
15 14 14 15 17 19 20 19 18 16 12 9 6 6 5 5 5 5 5 6 6 6 5 4 4 7 6 4 4 8 12 11 6 6 7 6 6 10 16 18 17 20 21 20 17 14 12 9 7 7 5 2 3 4 4 2 2 2 1 2 2 3 3 4 5 5 6 8 4 2 5 4 3 9 15 22 27 28 27 27 28 28 30 31 30 30 30 30
14 13 14 15 16 18 18 17 17 15 11 7 5 5 5 4 5 6 6 7 6 6 6 6 4 4 4 4 2 4 7 9 9 7 5 8 9 10 14 16 17 19 17 13 12 12 11 7 4 2 1 2 3 4 4 4 4 4 3 2 2 3 3 4 4 6 9 6 5 6 5 5 5 7 14 20 24 26 27 28 29 27 30 31 30 30 29 30
14 13 13 14 15 17 16 15 15 13 9 5 3 3 3 4 5 5 6 8 8 5 4 5 5 2 4 5 4 3 4 7 9 9 8 11 11 11 11 12 16 17 10 4 6 9 8 4 3 2 2 3 4 5 6 5 4 4 4 3 5 4 3 3 2 5 9 5 5 7 5 7 9 9 12 14 18 25 25 26 28 28 29 30 30 30 28 28
15 13 13 14 15 16 15 14 14 11 5 2 3 3 1 2 2 2 7 12 11 9 9 10 11 12 13 11 7 5 4 9 10 10 9 11 12 13 11 11 12 11 6 3 4 5 5 3 3 5 6 5 5 7 7 4 3 3 3 3 4 3 3 3 4 6 7 4 2 3 3 7 11 9 8 7 10 19 21 20 24 27 29 30 30 31 28 27
15 13 13 14 15 15 14 14 12 7 4 3 4 2 1 2 2 2 7 11 13 12 12 13 13 16 15 10 7 6 5 5 11 11 9 11 14 11 10 9 7 5 4 5 3 1 2 3 6 7 7 6 5 6 6 2 3 2 3 4 3 3 3 2 5 8 5 2 2 3 3 5 8 6 5 5 4 7 10 15 23 26 28 30 31 31 28 27
16 13 13 13 14 14 13 12 9 5 4 4 3 3 3 5 4 5 7 9 14 15 11 11 13 16 14 9 7 7 6 4 9 13 11 14 15 10 8 6 4 3 3 2 2 2 1 3 9 8 5 4 3 4 4 2 3 2 2 4 3 3 4 3 6 8 3 0 3 5 6 5 5 4 5 4 1 2 3 6 20 28 28 28 31 31 29 28
16 13 12 12 13 13 12 10 6 4 5 5 7 8 7 8 7 8 9 8 12 14 11 11 12 12 11 7 3 4 5 5 8 12 13 15 18 14 9 5 4 4 1 2 4 2 1 5 9 8 4 5 3 4 2 1 1 2 3 4 3 6 5 2 5 7 2 0 4 5 4 3 5 5 3 3 0 1 3 4 9 24 29 28 30 31 31 29
15 13 12 11 11 13 11 8 5 5 7 8 10 9 6 8 8 8 9 5 6 9 7 7 7 9 9 5 2 4 6 7 9 12 14 16 19 15 9 6 5 4 2 3 6 4 5 7 5 3 3 5 4 5 2 2 3 2 5 4 4 8 5 4 7 8 3 2 6 7 2 2 4 5 4 3 2 5 4 3 1 13 24 26 27 28 31 31
15 12 11 10 10 11 10 7 4 5 6 7 9 8 6 5 5 6 6 2 3 6 2 3 5 8 8 5 4 7 7 8 12 14 14 17 18 12 7 7 6 3 4 4 5 4 8 9 4 1 3 4 4 5 3 5 2 3 4 8 8 11 7 10 12 8 3 1 5 8 3 3 3 6 7 5 4 7 6 3 2 4 14 21 23 25 30 32
14 12 11 10 9 10 9 6 4 6 5 5 7 7 6 4 4 5 4 3 2 4 1 3 4 5 6 4 6 7 4 6 14 16 15 16 16 11 5 4 4 4 5 3 2 3 5 5 4 4 5 4 5 6 3 7 3 2 5 8 9 10 11 15 15 8 3 3 6 6 3 1 2 4 7 6 7 8 6 5 5 4 7 15 19 22 29 33
13 12 11 10 10 9 8 5 4 6 6 5 6 6 5 4 5 5 2 4 2 2 0 3 3 3 3 2 9 10 3 6 13 14 18 18 16 12 6 3 2 4 4 4 2 3 4 4 4 5 5 4 5 5 4 7 5 3 5 7 11 13 14 17 14 6 3 4 5 4 2 2 1 2 6 8 8 8 8 7 7 9 7 10 16 18 24 31
13 12 11 10 10 8 6 4 3 4 4 6 7 6 4 4 5 3 2 3 2 2 0 2 3 3 3 6 14 9 2 8 9 11 21 20 16 11 5 5 5 4 4 5 4 5 3 5 6 7 5 5 5 5 6 9 6 5 3 6 10 12 14 14 9 4 3 5 4 5 3 2 1 2 6 7 7 9 12 11 8 12 12 10 13 16 19 26
12 11 11 10 10 7 5 3 3 3 5 6 7 5 4 5 4 2 3 3 1 2 1 2 2 4 4 7 10 3 1 6 4 10 21 19 16 9 4 7 7 3 4 5 5 6 3 7 8 7 5 5 7 7 8 9 6 2 5 8 8 10 10 7 4 3 3 4 4 8 6 2 1 3 6 6 6 9 11 10 9 15 16 12 12 15 17 21
12 11 10 10 8 7 6 5 4 5 7 6 6 5 6 5 2 3 3 2 1 2 0 1 2 3 4 4 2 2 2 2 1 9 14 12 14 8 2 7 5 1 3 1 4 7 7 9 7 5 7 8 8 8 9 10 6 6 10 9 8 6 5 4 3 3 2 1 4 10 9 3 0 2 5 5 3 6 9 8 9 15 16 14 13 14 15 16
10 10 10 9 7 7 8 6 5 7 8 7 8 8 6 3 3 4 1 1 0 2 1 1 2 2 5 4 1 1 2 1 1 8 7 5 7 3 2 2 1 1 3 4 3 5 5 6 4 6 12 11 6 6 8 9 7 9 7 5 7 4 4 5 4 4 0 3 4 7 9 3 0 1 2 5 3 3 9 10 11 15 18 18 16 16 15 12
9 10 9 8 7 8 8 6 7 8 8 7 9 8 3 2 3 1 1 2 1 2 2 3 3 2 3 3 1 2 2 1 2 6 5 3 3 2 2 2 3 1 3 3 3 4 3 4 4 5 11 10 7 3 3 4 6 7 6 7 6 2 3 3 2 2 3 3 2 7 9 2 2 2 3 5 5 3 9 12 13 17 22 23 19 16 15 10
8 9 8 8 8 7 6 6 7 7 7 8 9 6 3 4 2 2 2 2 1 3 3 2 3 3 5 3 1 2 1 1 4 3 2 3 3 3 3 3 5 4 1 3 1 3 2 5 4 2 5 8 9 4 2 4 6 8 8 7 5 3 2 1 2 2 3 1 2 6 8 1 2 1 5 3 1 2 7 14 17 18 21 24 21 16 14 12
7 8 7 7 6 6 5 5 6 5 5 7 6 3 4 4 1 3 2 3 4 3 2 2 3 3 5 3 3 2 2 2 3 4 3 3 3 1 3 3 3 4 2 1 1 1 2 4 4 4 4 6 9 6 6 7 7 8 9 9 8 6 5 3 5 3 2 1 3 2 4 1 1 1 6 5 5 7 6 12 19 22 22 21 19 15 14 13
7 7 7 6 4 4 5 6 5 3 3 5 4 5 3 0 3 2 2 4 3 3 3 3 5 4 3 1 3 0 3 1 0 4 4 3 2 1 2 3 3 4 4 1 2 2 3 5 7 5 4 6 7 6 7 8 5 4 5 7 5 7 6 3 3 4 4 4 3 3 1 1 1 2 5 5 6 8 9 12 16 20 21 21 18 16 15 14
6 6 6 4 3 3 3 2 2 2 2 3 4 3 1 2 3 2 2 3 2 2 2 5 5 4 3 3 4 4 2 1 2 3 3 2 2 2 2 3 2 3 4 3 3 1 1 4 7 3 2 4 8 8 5 6 5 2 3 5 5 4 7 4 1 3 4 4 2 1 1 1 1 1 3 4 6 7 8 9 12 15 19 21 19 18 17 17
6 7 7 4 2 3 2 1 1 1 2 3 4 1 3 3 3 4 3 5 4 2 4 3 3 3 1 1 3 5 3 3 4 2 2 2 1 3 4 4 2 2 3 4 3 1 3 3 7 1 2 3 6 9 4 1 5 5 3 5 3 3 4 4 3 3 3 3 1 1 0 1 1 0 1 1 5 6 6 5 8 13 18 20 19 18 18 19
6 8 7 3 3 5 4 1 0 1 2 3 3 2 2 2 4 4 6 6 2 3 5 3 1 2 2 1 2 4 2 2 3 2 2 3 2 2 3 4 3 2 4 4 3 0 3 1 7 3 4 2 4 8 4 5 3 5 5 3 3 3 1 2 3 2 2 3 1 2 3 2 2 1 1 2 5 6 6 6 4 8 14 19 20 19 18 19
5 5 4 2 4 7 6 4 2 1 3 3 1 2 1 3 7 8 7 3 2 4 4 2 2 3 2 2 1 2 2 1 2 3 2 2 0 1 2 2 3 6 6 2 4 1 2 2 4 5 2 1 4 4 2 2 5 4 4 2 2 3 3 3 3 3 4 4 3 1 2 3 2 1 1 3 5 6 5 6 6 4 7 15 17 17 18 19
5 4 3 2 4 7 8 7 4 1 2 1 1 3 2 3 8 11 10 5 3 4 2 1 2 3 1 1 1 1 2 1 2 4 2 0 0 2 3 1 2 6 6 3 3 1 1 3 2 5 4 1 1 1 5 5 2 3 3 2 1 2 2 3 2 2 4 4 3 3 1 3 2 1 1 4 6 6 6 7 8 9 8 13 15 16 17 17
4 3 2 2 3 7 8 6 3 0 1 1 2 2 3 3 5 10 11 8 5 6 5 3 3 3 1 2 2 1 2 2 1 4 2 0 1 1 3 2 2 4 4 4 4 1 0 2 3 2 2 2 2 3 6 8 6 5 4 3 3 3 4 4 2 2 2 4 4 4 3 2 2 1 3 6 6 6 8 10 10 11 12 11 11 15 17 16
2 1 1 2 2 6 6 3 2 1 2 1 3 3 5 5 3 7 9 8 6 5 6 3 2 2 2 1 1 1 3 2 2 3 3 1 2 3 4 8 6 3 2 1 3 3 1 2 3 1 2 3 5 5 3 5 5 6 4 3 4 4 4 5 3 2 2 3 2 3 2 0 0 1 1 5 6 7 10 12 12 13 14 12 12 14 15 14
4 2 3 1 3 6 3 1 4 3 1 4 5 4 5 3 3 5 6 6 4 2 4 3 1 2 2 1 0 1 3 2 1 2 3 1 1 3 6 12 9 3 3 2 3 2 0 2 3 2 3 3 5 5 4 4 5 6 2 2 5 3 3 5 5 4 4 3 2 3 2 2 2 2 1 8 9 9 11 14 15 15 14 14 14 14 14 12
5 2 4 3 5 9 4 0 2 3 4 5 3 3 3 1 2 4 4 4 3 1 3 2 1 3 2 1 2 1 2 2 0 1 3 3 1 3 7 14 11 4 3 1 2 2 1 1 2 2 2 3 4 5 6 6 3 2 2 1 5 7 8 6 3 4 3 3 4 4 2 2 2 1 4 10 10 9 11 14 15 15 15 16 17 16 17 17
5 1 0 3 3 12 8 3 4 2 4 4 4 4 4 2 3 6 5 4 5 4 3 2 3 4 3 3 4 3 1 3 1 2 3 1 2 4 9 14 12 6 4 3 3 3 0 2 3 4 4 3 2 1 1 2 2 2 2 3 5 9 10 6 4 5 2 3 3 4 4 4 4 5 7 8 7 8 9 13 15 15 16 18 19 19 19 20
4 1 3 6 2 9 10 8 4 3 3 1 2 2 2 3 4 8 8 6 9 7 4 2 4 5 5 5 5 5 5 3 3 2 3 1 3 3 8 13 14 12 11 10 10 3 3 3 3 5 5 5 6 5 4 3 2 0 1 3 4 5 7 7 5 3 4 5 2 0 6 11 9 9 9 8 7 7 8 11 13 13 14 17 20 22 20 20
3 1 1 4 2 2 4 5 3 2 3 2 1 2 2 4 4 7 7 5 9 10 4 3 4 3 2 4 4 3 5 5 6 4 2 2 2 3 7 11 14 17 14 12 14 5 4 4 4 4 2 2 5 2 1 4 4 2 1 2 4 5 6 7 4 5 9 7 1 3 11 15 13 12 11 9 7 7 8 11 13 13 15 17 20 22 22 21
3 0 1 3 2 2 1 4 2 3 2 3 1 0 3 6 5 5 5 4 7 9 5 4 5 3 4 3 4 2 5 5 5 4 2 3 3 4 7 7 9 15 13 9 11 6 5 4 5 3 5 5 4 5 5 6 5 4 5 3 4 5 7 6 3 5 8 5 5 10 13 13 12 12 11 11 11 11 13 16 16 15 16 17 20 22 22 21
4 0 0 4 2 4 4 7 3 4 5 2 2 3 3 4 5 3 4 3 4 7 4 3 4 4 5 5 5 2 4 4 3 4 2 3 3 2 4 4 5 12 11 6 6 4 4 3 7 4 4 8 9 7 6 8 7 7 9 7 6 7 8 8 6 5 7 7 10 15 12 8 8 10 11 14 17 18 18 18 17 16 15 15 18 21 23 22
4 3 4 5 3 6 7 5 1 3 5 3 3 4 2 3 5 4 5 5 3 6 5 5 4 6 6 6 6 3 1 3 2 3 1 2 2 1 2 1 3 7 9 4 4 5 3 2 6 4 4 7 9 7 7 8 10 10 10 9 8 9 10 8 8 8 10 10 12 14 12 7 5 9 14 18 22 22 18 16 17 17 16 16 18 20 23 25
3 4 7 4 2 6 8 4 2 4 3 3 2 2 2 2 3 4 6 8 6 3 3 4 5 5 6 8 8 3 1 2 2 4 2 1 1 1 1 0 1 2 5 3 3 5 4 1 4 4 4 4 6 7 7 6 10 10 9 9 8 5 5 5 4 5 9 13 14 13 10 6 7 13 18 19 22 21 17 17 19 18 18 20 20 21 23 25
2 2 5 3 1 5 6 3 3 3 2 1 1 2 2 2 2 4 5 8 10 10 7 4 4 4 5 7 6 4 4 3 2 4 4 5 6 7 6 7 8 5 2 2 2 3 2 3 2 4 3 3 6 6 4 6 8 6 4 5 4 1 4 5 2 3 10 16 13 9 8 7 11 15 15 15 18 19 19 21 22 21 21 22 23 23 24 24
Wind_Direction
357 356 355 354 352 349 349 351 351 352 348 343 340 334 326 317 307 297 293 293 296 298 299 301 301 299 300 298 285 269 260 257 257 254 247 233 218 208 186 180 180 172 173 177 179 179 178 175 171 168 169 177 197 211 207 213 218 205 195 228 261 301 295 274 195 161 117 142 161 165 171 161 153 165 130 128 137 135 135 130 132 131 140 151 154 154 154 156
353 352 351 350 349 347 347 346 347 348 345 340 333 327 325 322 313 302 297 296 295 295 298 299 298 297 300 301 293 278 266 260 258 255 244 219 211 201 185 180 178 176 178 180 180 182 176 169 168 167 170 177 196 207 203 211 206 197 182 209 250 276 253 270 175 148 141 149 156 161 169 168 155 149 137 136 137 130 123 122 123 122 133 144 151 153 153 157
353 350 347 345 344 343 343 342 343 343 343 339 330 324 323 325 319 310 304 299 295 294 296 298 298 297 299 301 299 287 277 276 266 257 239 215 210 197 188 184 178 175 181 183 180 179 172 167 171 173 176 187 205 202 199 203 197 205 214 269 252 169 207 240 178 163 164 153 150 157 163 161 153 141 138 143 137 133 133 138 134 130 138 146 153 155 154 161
354 352 349 345 340 338 337 338 338 338 340 338 332 325 322 322 320 315 308 299 293 294 296 300 299 297 299 300 303 293 296 302 263 228 189 198 205 197 191 187 182 174 173 181 179 175 168 167 175 180 181 204 226 211 214 206 188 194 202 237 191 161 149 187 184 176 161 157 152 151 153 152 156 149 142 144 136 142 153 153 149 143 147 151 155 156 158 167
354 355 353 350 345 337 332 331 332 334 334 334 333 327 322 318 314 313 309 301 293 294 299 303 300 299 301 297 301 289 308 350 186 159 135 163 189 195 190 189 188 174 165 174 178 174 169 169 172 180 190 223 235 211 236 211 193 184 187 191 161 159 120 154 182 176 159 156 147 146 151 154 161 162 157 153 150 169 164 161 157 152 152 155 155 157 162 169
355 355 354 353 350 344 337 329 327 328 328 330 331 326 322 313 307 307 305 301 294 298 304 305 302 300 298 291 296 265 242 178 162 148 127 146 165 184 188 189 190 178 169 172 177 175 173 172 169 178 196 233 236 215 242 215 198 213 141 126 162 159 132 134 156 162 156 153 147 151 153 150 148 146 162 161 155 160 165 164 159 155 155 155 156 158 163 170
354 355 356 355 353 350 345 337 328 325 326 325 324 323 320 311 303 301 301 302 299 303 307 304 301 298 297 289 290 255 248 232 160 142 122 130 145 172 186 190 189 184 178 175 178 177 175 176 179 188 187 240 235 221 246 225 198 211 96 89 128 137 121 117 132 147 150 144 146 152 151 152 144 141 160 154 146 156 163 162 156 154 154 155 157 161 166 172
354 355 358 359 358 356 351 347 338 329 326 321 318 318 317 310 302 299 302 305 304 309 307 301 296 291 294 285 288 284 259 224 160 153 135 122 138 164 184 191 191 189 184 179 180 179 177 182 190 189 179 245 243 246 254 227 189 204 149 119 103 113 114 119 136 146 141 132 146 146 142 159 155 148 160 143 143 157 159 157 153 152 154 156 160 164 168 172
353 355 358 360 1 1 357 352 346 338 331 320 315 314 315 309 301 300 302 307 310 313 303 293 292 284 287 279 284 301 251 201 181 180 165 141 146 162 183 194 194 193 188 182 182 183 185 190 194 189 189 248 261 272 241 173 168 183 121 102 94 106 117 130 139 137 136 138 143 137 113 151 157 146 136 134 146 156 157 154 154 154 156 160 162 167 170 173
350 352 355 357 358 359 357 353 349 344 335 324 318 315 314 305 299 300 301 311 313 310 298 286 288 278 277 268 255 276 195 171 170 175 175 194 194 180 188 198 200 197 191 185 184 185 190 195 195 196 212 265 279 273 219 177 167 130 102 79 88 105 105 126 134 127 124 126 127 83 40 118 169 165 109 143 149 154 154 154 157 158 160 163 165 169 172 175
346 347 349 352 352 352 351 349 348 345 339 330 321 314 310 304 298 297 302 313 313 307 298 285 283 274 269 251 228 210 167 158 162 174 191 219 230 219 202 203 205 201 193 187 185 185 189 191 188 195 217 293 298 319 340 170 152 128 110 79 76 92 90 112 126 131 127 120 123 101 69 347 308 289 153 150 152 154 154 155 160 161 163 166 168 172 174 178
342 341 343 346 347 347 345 343 343 343 341 332 324 312 303 301 293 295 306 312 310 308 304 294 281 271 264 255 240 210 174 172 182 196 211 222 238 237 225 220 208 203 197 189 185 185 188 185 183 209 264 319 311 337 42 146 139 125 116 95 84 79 94 115 116 132 132 140 136 116 108 287 312 288 148 150 154 154 154 157 162 163 165 169 172 174 177 181
340 337 337 340 342 343 342 341 340 339 341 334 325 307 296 298 290 295 308 304 312 318 320 310 287 279 266 262 236 190 179 191 204 210 216 232 231 213 213 219 209 202 201 193 186 187 190 189 203 265 291 309 303 285 135 138 128 114 99 97 127 85 98 132 113 131 127 129 146 127 138 209 256 236 164 153 155 152 153 159 163 166 169 171 174 177 179 182
338 333 333 336 339 341 341 342 340 339 340 334 322 299 291 294 289 299 307 291 308 323 328 321 314 299 263 250 177 169 186 197 207 207 212 245 227 199 197 201 201 196 198 197 193 193 197 208 252 285 290 277 262 191 122 121 109 114 96 69 121 114 162 152 122 140 133 138 159 124 150 173 220 236 175 158 157 152 155 161 164 168 170 173 176 178 180 182
336 330 330 334 337 340 342 344 343 341 338 331 319 293 288 296 292 301 301 274 292 312 325 318 337 319 282 264 178 178 193 199 206 198 206 247 224 201 192 188 192 189 193 196 195 197 201 222 258 273 280 266 249 194 105 66 27 108 122 92 266 125 155 142 138 158 133 145 172 139 129 159 217 219 176 163 161 155 156 162 166 169 172 174 176 179 181 183
335 329 328 332 337 340 343 346 346 344 338 330 318 295 294 306 295 289 286 276 284 292 309 311 319 327 299 263 182 182 200 208 204 191 208 233 221 203 187 181 185 185 188 191 194 203 210 242 266 256 256 242 178 129 101 69 7 327 113 153 200 130 150 144 143 180 125 134 180 204 147 140 213 214 180 167 167 160 158 164 166 168 171 175 178 181 183 184
336 328 327 332 337 340 344 347 347 345 338 330 321 308 314 316 297 289 288 281 276 281 294 285 286 304 283 223 161 175 204 215 204 199 206 194 181 181 173 171 177 181 184 188 199 221 236 251 250 243 247 170 119 109 110 149 218 269 97 126 190 136 154 156 137 184 163 144 171 169 155 147 177 200 181 175 175 165 162 167 168 169 171 175 179 182 185 186
338 329 329 332 336 340 345 348 346 345 339 335 337 332 335 323 301 289 285 283 278 292 300 268 259 308 271 209 154 157 202 211 206 206 180 152 155 165 163 162 169 174 178 189 211 233 244 241 195 200 296 120 127 114 137 199 197 194 177 132 166 147 166 177 143 172 176 165 155 148 152 148 151 191 188 182 180 173 169 170 170 171 173 176 181 183 187 189
342 333 329 331 336 340 346 348 345 344 340 344 14 9 4 345 313 286 280 276 263 276 302 253 223 277 282 261 285 312 237 207 210 213 178 153 162 175 158 151 167 167 159 175 221 221 216 207 154 158 205 183 160 151 174 199 165 167 184 160 166 163 155 159 103 147 163 153 151 162 163 151 160 196 194 178 180 179 173 173 173 173 175 178 182 187 190 191
344 335 328 331 336 340 347 348 345 349 350 12 52 59 41 354 336 292 285 276 267 270 278 270 260 268 282 285 291 304 239 198 209 218 190 161 167 181 170 154 164 164 154 162 203 212 185 181 206 198 203 196 166 173 196 195 127 130 159 175 178 149 109 111 108 133 145 138 157 163 152 162 169 183 175 153 180 180 172 178 179 175 178 180 185 191 193 195
343 335 328 330 335 340 346 348 349 360 33 76 68 52 21 20 40 327 302 290 294 292 280 280 275 270 277 279 273 297 300 223 213 215 205 186 176 180 189 173 148 162 204 195 192 248 127 177 233 220 199 188 169 180 203 183 101 135 148 157 162 111 87 76 124 133 130 120 146 137 141 182 181 159 115 110 177 178 169 185 185 181 181 183 189 192 194 198
342 334 328 329 336 340 342 347 354 12 39 61 44 12 18 17 360 332 327 301 301 304 290 280 271 267 274 273 265 284 297 267 224 214 205 198 192 187 190 175 141 182 223 179 133 22 67 224 245 234 183 157 186 200 199 128 119 169 133 131 151 124 97 64 106 116 101 119 161 160 159 170 171 131 80 77 115 37 64 181 191 188 183 184 190 191 193 194
339 333 329 329 335 338 338 344 352 10 16 18 13 13 8 347 323 318 324 293 292 301 284 266 262 266 277 271 249 248 230 229 234 214 195 192 196 193 181 154 144 180 184 129 149 138 205 238 245 237 166 141 225 241 191 118 178 188 144 131 169 169 148 114 123 119 95 174 144 143 146 149 140 130 97 76 167 230 90 85 191 191 187 188 191 192 192 188
335 332 329 328 334 337 335 335 341 1 8 18 24 22 357 328 316 315 317 288 287 302 281 254 253 260 268 260 221 234 223 224 228 205 187 187 187 185 186 164 138 168 201 168 161 175 237 257 263 240 168 160 218 256 187 159 256 232 179 174 170 182 175 110 131 127 83 59 112 113 103 219 156 155 180 151 203 232 177 96 169 185 183 189 191 192 193 186
333 329 327 327 331 334 330 326 338 355 1 19 25 22 6 337 318 315 325 335 294 305 319 193 227 252 254 249 242 234 216 219 222 201 187 189 180 170 184 179 152 187 212 174 160 199 254 263 266 259 224 167 183 248 201 154 228 306 218 207 187 180 150 111 129 129 97 154 158 146 159 224 174 174 194 184 190 221 213 193 252 178 169 179 185 188 189 184
329 325 324 324 326 331 326 317 323 334 340 358 3 9 11 347 321 312 332 38 332 298 9 168 209 246 239 246 228 200 164 211 218 202 187 193 190 172 170 177 158 193 193 166 171 215 253 245 194 209 232 180 180 237 201 142 150 300 241 211 186 164 134 131 146 142 136 193 182 175 177 172 187 192 191 191 189 203 223 231 245 238 167 165 172 180 185 182
325 321 319 318 323 328 323 311 308 321 332 333 329 341 352 336 330 320 342 39 5 292 31 181 200 221 225 229 187 167 118 204 205 200 189 190 196 183 175 190 167 194 178 145 206 235 221 211 183 196 215 193 198 228 193 143 144 245 241 189 167 155 146 151 155 148 155 134 139 182 187 114 178 203 176 187 191 190 215 231 237 239 216 167 163 169 181 183
321 316 312 315 322 325 322 309 294 317 327 318 314 317 324 328 333 336 71 64 349 312 342 204 202 202 173 157 172 165 120 172 173 201 195 188 190 182 180 198 170 189 184 149 216 258 199 193 194 188 205 214 211 216 181 157 177 245 240 158 161 153 148 153 148 137 146 116 134 209 213 112 165 187 161 177 194 189 202 217 223 226 222 194 169 162 173 183
317 309 306 312 319 319 309 282 279 310 304 306 315 311 310 325 341 21 87 79 312 315 357 194 205 211 184 162 179 195 112 162 153 194 191 187 191 185 193 206 182 210 233 174 208 258 237 219 208 174 187 217 221 224 183 172 209 242 90 102 122 124 125 131 118 111 128 119 183 203 192 139 158 190 167 171 205 201 197 204 214 219 217 207 186 166 164 177
315 303 303 308 314 316 291 262 277 294 287 300 321 324 324 327 26 66 59 51 291 271 225 208 235 198 162 148 218 273 141 196 200 171 179 185 192 196 192 199 191 215 270 262 222 248 258 250 236 183 202 214 215 222 196 186 181 90 82 86 86 94 100 85 52 45 93 207 218 192 177 155 229 212 179 177 215 199 188 188 200 213 216 213 202 179 164 169
311 299 300 303 312 312 288 276 288 281 280 304 319 324 331 335 71 83 81 357 316 277 291 251 254 171 145 142 219 215 139 259 138 147 167 177 181 206 71 160 203 47 338 326 283 273 274 254 241 215 221 211 192 220 210 190 158 98 83 94 80 32 12 47 26 3 275 239 250 183 159 135 218 248 210 220 252 190 182 189 189 199 208 211 208 190 176 172
305 293 294 298 305 304 294 300 295 276 276 299 315 322 344 37 39 75 242 326 359 245 232 217 230 200 153 138 188 212 143 208 161 144 164 144 136 202 166 166 189 108 321 284 287 310 282 241 240 234 231 202 161 215 226 165 146 113 101 109 97 52 1 43 37 320 234 245 274 162 141 101 221 214 307 246 233 192 189 194 188 190 199 205 209 200 190 186
296 286 288 292 299 305 305 303 284 270 273 292 312 329 61 76 27 247 255 314 258 224 219 191 197 160 123 115 225 234 100 223 207 161 138 105 108 208 232 219 171 136 234 222 290 333 304 284 272 234 247 201 166 174 176 150 157 141 133 133 122 118 115 128 186 239 243 282 351 140 133 39 246 204 344 314 147 120 179 187 187 193 198 200 204 202 196 197
289 282 285 290 305 316 300 280 268 262 275 295 321 22 68 63 278 252 275 263 246 255 263 153 148 113 99 138 226 191 128 256 207 140 97 57 61 239 259 258 174 131 121 197 301 182 167 284 250 188 224 199 173 179 170 153 154 160 156 146 148 160 160 180 192 205 204 126 17 59 135 256 272 352 339 353 49 66 115 162 180 195 204 203 201 196 192 195
284 274 281 291 309 309 282 272 268 262 290 311 3 64 75 9 256 264 268 254 267 307 323 55 90 79 46 346 280 258 144 237 303 106 90 78 81 272 248 245 217 157 127 132 260 197 163 249 249 232 221 177 171 184 156 128 134 174 154 131 160 182 157 152 178 156 136 118 39 18 113 294 289 296 330 9 55 66 88 127 156 177 192 196 194 191 190 192
278 271 281 287 283 277 274 275 248 236 306 358 53 64 144 218 226 208 232 262 300 326 16 37 51 56 13 345 332 343 44 59 28 67 66 106 107 347 290 255 243 179 153 161 219 245 129 262 278 286 258 194 177 174 154 145 155 141 132 157 194 174 133 126 97 71 90 98 60 41 114 15 308 271 338 38 74 68 76 110 134 151 170 182 186 187 191 192
269 276 279 271 247 240 238 228 164 256 326 61 73 20 227 222 214 202 266 301 307 359 76 65 33 59 35 339 351 346 9 26 14 47 60 47 23 335 307 283 267 189 203 191 201 199 149 271 294 272 218 256 155 129 90 108 138 121 157 194 186 92 97 108 96 48 61 94 75 358 71 225 215 126 336 61 90 68 53 85 131 148 160 176 187 191 195 197
283 288 285 276 234 227 216 203 161 322 355 67 45 313 215 232 250 246 294 309 320 43 66 93 112 92 116 126 7 333 343 27 9 48 83 32 334 282 316 295 281 319 278 212 181 174 132 255 294 261 198 268 74 93 61 358 47 119 153 161 117 115 117 93 122 137 100 105 122 1 347 274 209 152 239 179 104 79 42 49 104 153 160 171 184 190 195 201
314 310 314 331 255 232 221 232 258 334 25 54 22 294 234 263 287 304 322 333 71 69 65 71 71 76 81 120 156 327 10 106 91 78 77 54 242 238 17 322 285 330 328 177 152 204 140 143 278 283 245 249 32 69 144 326 6 53 83 57 58 132 149 138 140 145 126 131 154 120 321 270 222 187 208 164 113 98 70 55 49 52 139 162 173 176 184 194
340 346 349 316 261 238 224 230 249 11 38 49 204 246 269 273 301 335 11 54 60 51 89 144 70 84 31 24 124 87 33 45 115 95 93 127 235 289 326 350 269 310 332 57 106 173 156 115 208 289 326 98 135 169 173 170 140 75 60 51 58 93 132 122 78 77 117 135 146 134 212 263 282 341 128 126 114 109 100 86 60 47 96 147 160 163 175 186
358 11 359 302 249 234 218 211 244 342 91 261 236 244 298 301 306 342 18 61 69 55 85 125 112 116 139 43 42 80 38 348 39 96 101 336 73 264 301 335 278 290 343 34 35 20 161 107 163 271 4 115 235 258 185 172 162 140 132 158 159 135 122 101 53 335 91 120 151 151 172 253 330 25 95 107 112 117 106 94 75 60 79 110 130 147 165 178
30 14 347 350 273 225 203 183 275 269 147 254 290 275 288 307 330 341 5 43 68 65 62 74 107 101 117 137 3 59 85 13 344 83 107 172 152 190 291 329 328 316 49 43 295 280 217 97 102 232 212 188 267 281 193 162 135 119 123 161 149 128 119 123 163 217 83 87 103 105 112 143 328 315 66 109 121 121 107 96 89 82 84 89 96 116 139 156
1 325 181 194 252 215 187 344 318 329 279 261 284 280 266 285 354 341 353 27 42 71 59 44 114 86 78 145 96 73 97 61 338 93 112 143 252 251 303 341 353 11 64 37 297 306 11 71 63 315 300 309 303 315 356 27 80 89 52 120 130 124 124 135 155 148 120 136 126 81 82 164 188 269 130 129 128 114 106 104 101 96 91 89 90 100 112 120
355 351 154 162 229 210 183 253 271 307 298 282 310 327 306 40 44 356 356 14 10 78 86 18 35 89 87 117 86 104 135 100 5 6 92 131 266 304 335 356 10 32 40 13 271 304 333 52 70 61 25 6 348 353 356 350 25 79 342 29 109 110 108 109 101 84 102 186 160 122 140 157 150 160 120 127 124 104 103 108 107 103 96 89 87 94 103 103
18 23 151 18 209 200 200 211 195 210 282 307 348 337 334 7 36 23 24 22 21 62 110 31 30 66 62 56 47 11 36 105 117 341 45 94 282 340 1 7 19 23 357 330 288 290 132 104 103 121 134 151 169 225 256 294 325 338 352 29 95 116 118 120 105 86 119 185 141 122 144 128 124 137 126 122 117 104 103 107 107 104 100 95 93 95 103 104
50 63 321 1 98 195 223 245 226 202 231 296 8 314 353 15 359 18 33 35 23 36 106 100 39 47 37 36 47 13 354 42 76 59 53 9 293 332 11 20 25 13 0 5 2 2 127 73 81 128 135 166 187 225 226 159 112 331 23 54 98 112 107 109 112 131 162 142 81 276 152 137 143 153 140 131 127 118 113 113 113 110 102 97 97 99 103 105
64 67 344 355 358 228 261 271 258 225 215 139 104 264 27 34 356 8 28 39 26 27 55 52 33 71 53 20 55 25 348 16 40 39 38 355 284 296 355 21 27 14 7 12 11 27 116 29 23 90 72 194 194 257 348 105 112 131 100 105 123 114 107 109 125 166 151 129 79 211 154 142 153 159 146 141 136 125 127 127 122 117 112 104 99 98 99 103
43 74 82 18 315 219 338 321 325 66 82 106 112 284 50 47 35 21 10 23 33 29 41 32 18 86 115 58 67 35 353 25 29 358 343 357 339 336 351 3 20 16 14 16 17 47 117 27 2 24 17 16 27 15 40 83 88 57 44 67 110 120 124 117 111 146 143 137 170 167 155 147 153 153 147 148 148 142 142 139 127 117 115 112 105 99 97 99
30 45 5 7 314 227 263 289 276 71 60 65 46 35 62 61 52 36 354 9 22 7 36 85 7 27 77 75 82 56 3 41 24 333 344 22 359 17 12 338 343 10 18 22 13 37 116 24 348 347 20 20 16 15 42 70 77 58 38 38 67 92 104 102 95 93 87 95 129 138 134 125 138 149 147 147 145 140 139 136 125 117 114 111 108 105 102 102
40 40 344 341 317 292 307 307 212 86 39 31 54 42 54 65 63 62 27 30 19 336 13 92 75 48 69 76 86 104 208 146 151 306 358 71 18 37 70 278 282 354 15 24 345 1 71 23 330 354 40 6 1 13 31 58 78 71 46 32 47 72 81 86 101 99 86 95 114 119 116 111 132 139 133 135 138 136 137 134 125 121 120 114 108 104 104 106
61 44 5 352 331 330 337 350 76 89 34 12 77 63 11 24 73 97 52 35 48 32 25 97 98 67 60 61 71 85 248 160 182 292 304 107 66 72 110 256 223 358 12 23 351 1 58 82 326 28 59 343 339 360 4 33 60 54 35 16 16 52 88 91 119 134 128 126 123 122 132 152 157 137 130 135 140 138 138 135 129 128 127 123 114 106 106 108
77 61 359 346 324 349 352 352 22 72 73 325 88 82 39 38 57 94 78 26 32 56 67 76 86 73 52 47 39 2 356 23 5 352 29 68 74 85 85 63 61 62 35 29 19 7 69 102 28 40 68 311 319 340 355 31 44 25 343 340 346 45 117 99 71 128 140 138 140 153 161 153 146 140 137 142 144 142 143 142 138 135 131 126 119 111 109 109
Height
1509 1508 1507 1506 1505 1504 1504 1503 1502 1502 1501 1500 1499 1498 1498 1497 1497 1496 1496 1495 1495 1494 1494 1494 1493 1493 1493 1492 1491 1491 1491 1491 1490 1489 1488 1488 1489 1491 1491 1493 1493 1495 1496 1497 1498 1500 1501 1503 1505 1507 1508 1510 1511 1511 1512 1513 1513 1515 1517 1521 1521 1518 1516 1512 1510 1511 1510 1511 1512 1513 1512 1514 1516 1517 1518 1521 1523 1523 1525 1527 1528 1529 1531 1533 1536 1538 1541 1543
1509 1508 1507 1506 1505 1504 1503 1502 1502 1501 1500 1499 1498 1498 1497 1496 1496 1495 1495 1495 1494 1494 1493 1493 1492 1492 1492 1491 1491 1490 1489 1489 1489 1487 1486 1487 1488 1489 1490 1491 1492 1493 1494 1495 1497 1498 1500 1503 1505 1506 1508 1509 1510 1510 1511 1511 1512 1514 1515 1518 1518 1515 1513 1509 1508 1509 1509 1510 1511 1512 1513 1515 1516 1516 1518 1521 1523 1524 1525 1528 1529 1530 1533 1536 1538 1540 1543 1544
1509 1508 1507 1505 1504 1503 1502 1501 1501 1501 1500 1499 1498 1497 1496 1496 1495 1494 1494 1494 1494 1493 1493 1492 1492 1491 1491 1491 1490 1489 1488 1488 1486 1485 1485 1485 1486 1487 1489 1490 1491 1492 1494 1496 1497 1499 1501 1503 1504 1506 1507 1509 1509 1510 1510 1510 1511 1511 1513 1517 1515 1511 1510 1508 1508 1508 1509 1510 1510 1513 1514 1515 1516 1516 1518 1520 1523 1525 1526 1527 1528 1530 1533 1536 1539 1541 1543 1545
1508 1507 1506 1505 1504 1502 1501 1500 1500 1499 1499 1499 1498 1497 1496 1495 1494 1494 1493 1493 1493 1493 1492 1492 1491 1491 1490 1489 1489 1488 1488 1487 1484 1483 1484 1484 1485 1486 1488 1489 1490 1492 1494 1496 1498 1500 1502 1504 1505 1506 1507 1508 1508 1509 1509 1508 1509 1508 1511 1514 1510 1508 1510 1510 1508 1509 1510 1511 1511 1514 1515 1516 1517 1517 1519 1520 1525 1528 1526 1527 1527 1528 1532 1535 1539 1542 1544 1546
1507 1506 1505 1504 1503 1502 1501 1500 1499 1498 1498 1497 1497 1496 1495 1494 1493 1493 1492 1492 1492 1492 1491 1491 1490 1490 1489 1489 1489 1488 1488 1487 1483 1482 1483 1483 1484 1485 1487 1489 1490 1492 1494 1496 1498 1499 1501 1503 1505 1506 1508 1508 1508 1509 1507 1505 1506 1507 1508 1507 1506 1506 1509 1510 1509 1510 1512 1513 1514 1515 1516 1517 1517 1518 1520 1520 1523 1526 1525 1526 1527 1528 1531 1534 1538 1542 1544 1546
1506 1505 1504 1503 1502 1501 1500 1499 1498 1497 1497 1496 1496 1495 1494 1494 1493 1492 1492 1491 1491 1491 1491 1490 1489 1489 1489 1488 1488 1487 1487 1486 1482 1481 1483 1483 1483 1484 1486 1488 1490 1492 1493 1494 1497 1498 1500 1502 1504 1506 1507 1507 1507 1507 1504 1503 1504 1507 1507 1505 1505 1505 1507 1510 1511 1513 1514 1515 1516 1516 1517 1517 1518 1520 1521 1522 1523 1524 1525 1527 1529 1530 1532 1536 1539 1543 1545 1547
1505 1504 1503 1502 1501 1500 1499 1499 1498 1497 1496 1495 1494 1494 1493 1493 1492 1491 1491 1490 1490 1490 1490 1489 1489 1488 1488 1488 1487 1487 1486 1483 1481 1482 1483 1483 1484 1484 1486 1488 1489 1491 1492 1493 1495 1497 1499 1501 1503 1504 1506 1507 1506 1504 1502 1501 1502 1506 1508 1505 1505 1505 1507 1511 1513 1517 1518 1519 1519 1518 1518 1518 1519 1521 1523 1524 1524 1525 1527 1529 1531 1533 1535 1538 1541 1543 1546 1548
1505 1504 1502 1501 1500 1499 1498 1498 1497 1496 1495 1494 1493 1493 1492 1492 1491 1491 1490 1490 1489 1489 1489 1488 1488 1487 1487 1487 1487 1486 1485 1483 1482 1482 1483 1483 1484 1484 1486 1487 1489 1490 1491 1492 1494 1496 1498 1500 1502 1503 1506 1506 1503 1502 1500 1501 1503 1504 1506 1505 1505 1506 1508 1511 1513 1518 1520 1521 1523 1521 1520 1520 1520 1522 1523 1524 1524 1526 1528 1532 1534 1536 1538 1540 1542 1544 1547 1549
1504 1503 1502 1501 1500 1499 1498 1497 1496 1495 1495 1494 1493 1492 1491 1491 1490 1490 1489 1489 1489 1488 1488 1487 1487 1487 1487 1487 1487 1486 1483 1482 1482 1482 1483 1484 1484 1485 1486 1486 1488 1490 1491 1492 1494 1496 1497 1498 1500 1502 1505 1504 1502 1501 1498 1502 1506 1502 1504 1505 1506 1508 1509 1510 1512 1517 1520 1521 1524 1524 1522 1522 1522 1523 1524 1524 1524 1526 1529 1533 1536 1537 1540 1542 1543 1545 1547 1549
1504 1503 1502 1501 1499 1498 1497 1496 1496 1495 1494 1493 1492 1491 1491 1490 1489 1489 1488 1488 1488 1488 1487 1487 1486 1486 1486 1486 1487 1485 1481 1481 1482 1482 1483 1483 1484 1485 1486 1486 1487 1489 1491 1492 1493 1495 1496 1498 1500 1502 1504 1502 1501 1500 1497 1501 1502 1500 1503 1506 1507 1509 1509 1510 1513 1516 1520 1522 1524 1527 1527 1525 1525 1525 1526 1525 1525 1527 1531 1534 1537 1538 1541 1543 1544 1546 1548 1550
1503 1502 1501 1500 1499 1498 1497 1496 1495 1494 1493 1492 1491 1491 1490 1489 1489 1488 1488 1488 1487 1487 1486 1486 1485 1485 1485 1485 1486 1483 1480 1481 1482 1482 1483 1483 1484 1484 1485 1486 1487 1489 1490 1491 1492 1494 1496 1499 1501 1503 1503 1502 1500 1498 1497 1497 1498 1499 1502 1506 1509 1510 1511 1512 1513 1516 1520 1523 1524 1525 1530 1530 1528 1527 1525 1525 1526 1528 1531 1535 1538 1540 1541 1544 1545 1547 1549 1551
1503 1502 1500 1499 1498 1497 1496 1495 1494 1493 1492 1491 1491 1490 1489 1489 1488 1487 1487 1487 1487 1486 1485 1485 1485 1484 1485 1484 1483 1481 1479 1481 1481 1482 1483 1482 1483 1484 1485 1486 1487 1488 1490 1491 1492 1494 1497 1499 1501 1502 1502 1501 1500 1499 1499 1496 1497 1500 1501 1508 1513 1511 1513 1514 1513 1517 1519 1523 1524 1523 1533 1536 1531 1529 1526 1525 1528 1528 1531 1536 1539 1541 1543 1545 1546 1548 1550 1551
1502 1501 1500 1499 1497 1496 1495 1494 1493 1492 1491 1490 1489 1489 1488 1488 1487 1487 1487 1486 1486 1485 1485 1484 1484 1484 1484 1482 1479 1479 1480 1480 1480 1481 1481 1482 1482 1483 1484 1485 1487 1489 1491 1492 1494 1496 1498 1500 1501 1501 1500 1501 1500 1500 1499 1497 1499 1502 1502 1508 1515 1516 1518 1515 1514 1518 1519 1524 1523 1523 1537 1542 1533 1530 1528 1528 1529 1529 1533 1536 1539 1542 1543 1545 1547 1549 1550 1551
1502 1500 1499 1498 1497 1495 1494 1493 1492 1491 1490 1489 1488 1488 1487 1487 1487 1487 1486 1486 1486 1485 1484 1484 1484 1483 1483 1480 1477 1478 1478 1478 1479 1479 1480 1481 1481 1481 1482 1484 1486 1488 1490 1493 1495 1497 1499 1500 1501 1501 1499 1499 1499 1499 1500 1500 1502 1505 1506 1509 1515 1521 1521 1515 1515 1518 1520 1524 1522 1523 1537 1541 1533 1529 1528 1529 1530 1530 1533 1536 1539 1542 1544 1546 1547 1549 1551 1551
1501 1500 1498 1497 1496 1495 1493 1492 1491 1489 1489 1488 1487 1487 1486 1486 1486 1486 1486 1486 1485 1485 1484 1484 1483 1483 1483 1479 1477 1477 1477 1478 1478 1479 1480 1480 1480 1480 1481 1483 1485 1487 1490 1493 1495 1498 1499 1501 1501 1500 1498 1497 1498 1501 1503 1505 1506 1506 1512 1517 1518 1520 1521 1516 1516 1517 1519 1522 1521 1524 1537 1539 1532 1529 1528 1530 1531 1531 1534 1537 1539 1542 1543 1545 1547 1549 1551 1552
1501 1499 1498 1497 1495 1494 1492 1491 1490 1489 1487 1486 1486 1486 1486 1486 1486 1486 1486 1485 1485 1484 1484 1484 1483 1484 1482 1478 1476 1477 1477 1478 1478 1479 1479 1479 1479 1480 1481 1483 1484 1486 1489 1492 1495 1497 1499 1500 1499 1498 1497 1496 1498 1502 1507 1511 1513 1510 1512 1519 1519 1520 1523 1520 1518 1516 1517 1520 1521 1524 1533 1537 1532 1529 1528 1529 1531 1532 1534 1537 1539 1541 1543 1545 1547 1548 1550 1552
1501 1499 1498 1496 1495 1493 1492 1490 1489 1488 1486 1486 1485 1485 1485 1486 1485 1485 1485 1485 1485 1484 1484 1483 1483 1483 1480 1476 1476 1478 1478 1478 1478 1479 1479 1478 1479 1480 1481 1483 1484 1487 1489 1493 1495 1496 1498 1499 1498 1497 1495 1497 1498 1501 1512 1521 1521 1515 1514 1517 1518 1518 1521 1522 1520 1517 1516 1519 1523 1523 1527 1531 1530 1528 1528 1528 1530 1532 1533 1536 1538 1540 1543 1544 1546 1548 1549 1551
1500 1499 1497 1496 1495 1493 1492 1490 1488 1487 1486 1485 1485 1485 1485 1485 1485 1485 1485 1485 1485 1484 1484 1483 1483 1483 1479 1475 1476 1477 1477 1478 1478 1478 1479 1479 1480 1481 1482 1483 1484 1487 1490 1493 1495 1494 1497 1496 1495 1497 1496 1498 1499 1502 1514 1520 1516 1515 1516 1517 1517 1517 1519 1521 1520 1517 1516 1519 1523 1526 1528 1529 1529 1529 1528 1528 1530 1532 1532 1535 1537 1539 1542 1543 1545 1547 1549 1550
1500 1498 1497 1495 1494 1493 1491 1490 1488 1487 1486 1485 1485 1485 1485 1485 1485 1485 1484 1484 1484 1483 1482 1481 1481 1481 1479 1476 1476 1477 1477 1477 1478 1478 1479 1479 1480 1482 1483 1485 1486 1488 1491 1494 1494 1493 1494 1495 1495 1499 1499 1499 1500 1501 1506 1506 1505 1508 1510 1512 1515 1518 1519 1519 1517 1515 1516 1522 1525 1527 1529 1529 1529 1530 1529 1529 1530 1532 1533 1535 1537 1539 1541 1543 1544 1546 1548 1549
1499 1497 1496 1495 1494 1492 1491 1489 1488 1486 1486 1485 1485 1485 1485 1485 1485 1485 1484 1482 1481 1480 1479 1479 1479 1478 1477 1476 1476 1476 1476 1476 1477 1478 1479 1480 1481 1483 1484 1486 1487 1489 1491 1493 1494 1491 1492 1496 1497 1498 1498 1497 1498 1499 1498 1499 1501 1504 1506 1510 1513 1516 1519 1516 1515 1515 1515 1523 1529 1527 1529 1531 1529 1530 1531 1531 1532 1533 1534 1536 1537 1538 1540 1541 1543 1545 1547 1549
1498 1497 1495 1494 1493 1491 1490 1489 1487 1486 1486 1485 1485 1485 1485 1485 1485 1485 1482 1479 1477 1477 1477 1477 1477 1476 1475 1475 1475 1476 1476 1476 1476 1477 1479 1480 1481 1483 1484 1485 1488 1491 1491 1490 1492 1490 1492 1498 1497 1493 1494 1495 1496 1496 1496 1499 1502 1503 1505 1510 1514 1517 1519 1515 1514 1516 1515 1523 1530 1527 1530 1534 1530 1532 1535 1535 1535 1535 1535 1536 1536 1537 1538 1540 1541 1543 1546 1548
1497 1496 1494 1493 1492 1491 1490 1489 1487 1486 1486 1486 1485 1485 1485 1485 1485 1484 1483 1479 1475 1474 1475 1475 1475 1474 1474 1474 1475 1476 1477 1477 1476 1477 1479 1480 1482 1483 1484 1485 1488 1491 1490 1490 1493 1494 1496 1498 1493 1490 1492 1494 1495 1495 1497 1500 1502 1504 1505 1511 1517 1517 1518 1517 1515 1517 1518 1523 1529 1527 1530 1535 1533 1534 1538 1538 1537 1535 1535 1535 1536 1536 1537 1539 1540 1542 1544 1546
1496 1495 1494 1493 1491 1490 1489 1488 1487 1487 1486 1486 1485 1485 1485 1485 1484 1484 1484 1481 1475 1472 1472 1473 1473 1473 1473 1473 1474 1475 1476 1476 1476 1476 1478 1480 1481 1482 1484 1486 1488 1490 1490 1491 1494 1499 1500 1495 1488 1488 1492 1494 1495 1495 1497 1501 1502 1504 1506 1510 1516 1514 1515 1521 1522 1521 1520 1521 1527 1529 1532 1534 1534 1536 1539 1540 1538 1535 1534 1534 1535 1536 1536 1538 1540 1541 1543 1544
1495 1494 1493 1492 1491 1490 1488 1488 1487 1486 1486 1486 1485 1485 1485 1484 1484 1483 1482 1480 1477 1471 1470 1471 1472 1472 1472 1472 1473 1474 1474 1475 1475 1475 1477 1479 1480 1482 1484 1485 1488 1490 1491 1491 1493 1497 1496 1489 1486 1489 1492 1494 1496 1496 1498 1502 1503 1503 1504 1506 1511 1511 1510 1516 1520 1520 1521 1523 1525 1532 1540 1538 1534 1537 1539 1538 1538 1535 1533 1533 1535 1536 1536 1538 1539 1540 1542 1543
1494 1493 1492 1491 1491 1489 1488 1487 1487 1486 1486 1485 1485 1485 1484 1483 1483 1482 1481 1482 1480 1473 1469 1471 1471 1471 1471 1472 1473 1473 1473 1474 1474 1475 1477 1478 1479 1482 1483 1484 1488 1491 1492 1492 1494 1496 1493 1487 1487 1490 1492 1494 1497 1497 1497 1501 1504 1504 1501 1498 1502 1505 1507 1514 1518 1520 1529 1534 1527 1530 1545 1544 1535 1536 1538 1536 1537 1536 1533 1533 1535 1536 1536 1537 1538 1540 1541 1542
1493 1492 1491 1491 1490 1489 1488 1487 1486 1487 1486 1485 1485 1484 1484 1483 1483 1482 1481 1485 1484 1474 1470 1471 1471 1471 1470 1471 1471 1471 1476 1475 1473 1475 1477 1478 1479 1480 1483 1485 1486 1489 1490 1491 1494 1494 1489 1486 1487 1490 1491 1494 1497 1497 1495 1497 1505 1507 1497 1490 1495 1501 1507 1514 1515 1520 1533 1535 1524 1524 1539 1545 1540 1537 1535 1535 1536 1536 1535 1534 1534 1535 1536 1537 1537 1539 1540 1542
1492 1491 1490 1490 1489 1489 1488 1487 1487 1486 1485 1485 1484 1484 1484 1483 1483 1481 1482 1492 1490 1475 1471 1473 1471 1471 1470 1470 1469 1472 1479 1477 1473 1475 1475 1477 1479 1479 1484 1486 1486 1488 1486 1490 1497 1493 1486 1486 1488 1489 1491 1494 1497 1497 1493 1494 1503 1503 1490 1486 1494 1499 1506 1511 1511 1518 1525 1524 1524 1525 1529 1540 1545 1539 1534 1533 1535 1536 1536 1534 1533 1534 1535 1536 1537 1538 1539 1541
1491 1490 1490 1489 1488 1488 1487 1486 1487 1486 1485 1485 1484 1484 1484 1482 1483 1481 1487 1500 1492 1473 1471 1472 1469 1470 1470 1470 1469 1471 1475 1473 1473 1476 1474 1477 1479 1479 1483 1485 1486 1488 1484 1490 1499 1491 1483 1487 1488 1488 1492 1493 1493 1491 1489 1492 1497 1494 1485 1486 1491 1495 1503 1507 1509 1517 1518 1523 1536 1532 1526 1538 1546 1539 1533 1534 1536 1537 1536 1532 1531 1532 1533 1535 1536 1537 1539 1540
1490 1489 1489 1488 1488 1487 1486 1486 1486 1485 1485 1484 1483 1484 1482 1482 1482 1481 1492 1500 1485 1471 1472 1471 1469 1470 1469 1470 1471 1470 1471 1471 1473 1475 1474 1477 1479 1479 1482 1483 1484 1486 1484 1487 1493 1488 1482 1483 1483 1485 1489 1489 1486 1484 1485 1489 1491 1487 1484 1488 1492 1497 1503 1507 1512 1518 1519 1527 1538 1532 1526 1537 1544 1538 1535 1536 1536 1534 1532 1530 1529 1530 1531 1533 1535 1536 1538 1540
1489 1488 1488 1487 1487 1486 1486 1486 1485 1485 1484 1483 1483 1482 1481 1482 1483 1489 1500 1496 1481 1474 1473 1470 1470 1469 1469 1471 1472 1471 1471 1472 1472 1473 1475 1477 1478 1479 1480 1481 1482 1485 1485 1485 1487 1485 1480 1479 1480 1481 1482 1480 1479 1480 1481 1484 1486 1484 1488 1495 1500 1504 1505 1509 1516 1520 1527 1532 1528 1523 1522 1531 1539 1537 1534 1533 1530 1526 1527 1528 1527 1528 1530 1532 1534 1536 1537 1539
1488 1487 1487 1486 1486 1486 1485 1485 1485 1484 1484 1483 1483 1481 1481 1483 1486 1497 1501 1488 1479 1477 1472 1471 1471 1469 1469 1472 1473 1473 1472 1472 1471 1473 1477 1478 1479 1481 1481 1483 1485 1487 1490 1488 1485 1483 1479 1480 1479 1475 1474 1474 1477 1480 1479 1481 1482 1486 1494 1501 1512 1520 1517 1521 1530 1533 1538 1533 1519 1516 1519 1527 1538 1538 1531 1527 1523 1520 1523 1525 1525 1526 1528 1530 1533 1535 1536 1538
1487 1486 1486 1486 1486 1485 1485 1485 1484 1484 1483 1483 1482 1481 1482 1487 1492 1498 1493 1482 1481 1479 1471 1471 1471 1469 1471 1473 1473 1473 1472 1473 1472 1473 1477 1478 1481 1482 1483 1486 1487 1493 1499 1494 1489 1484 1479 1478 1476 1472 1471 1470 1477 1483 1482 1484 1485 1490 1499 1503 1520 1540 1540 1541 1548 1545 1538 1526 1516 1514 1518 1528 1537 1535 1529 1524 1520 1519 1519 1520 1522 1524 1526 1529 1531 1534 1536 1538
1486 1485 1485 1485 1485 1484 1484 1484 1483 1484 1483 1482 1483 1481 1484 1492 1496 1493 1487 1482 1480 1474 1468 1469 1469 1469 1472 1474 1474 1473 1473 1474 1473 1474 1477 1478 1482 1483 1483 1483 1483 1490 1497 1494 1492 1489 1484 1479 1473 1473 1472 1467 1473 1481 1485 1488 1489 1493 1499 1505 1523 1545 1554 1557 1554 1545 1535 1526 1519 1513 1516 1531 1537 1531 1526 1522 1519 1519 1518 1518 1522 1524 1526 1528 1531 1533 1535 1537
1485 1485 1485 1484 1484 1484 1483 1483 1483 1483 1483 1482 1482 1482 1487 1496 1495 1487 1484 1481 1474 1469 1467 1468 1468 1470 1472 1474 1475 1472 1474 1476 1473 1475 1478 1480 1485 1486 1484 1483 1482 1484 1487 1491 1492 1491 1494 1490 1476 1472 1472 1466 1468 1473 1476 1481 1486 1489 1488 1495 1512 1524 1534 1543 1541 1536 1534 1531 1525 1519 1524 1537 1539 1530 1524 1521 1520 1520 1519 1519 1521 1524 1527 1529 1531 1533 1534 1537
1484 1484 1484 1483 1484 1484 1483 1483 1483 1483 1484 1482 1482 1487 1493 1497 1493 1486 1483 1476 1471 1469 1468 1467 1469 1474 1476 1474 1473 1471 1473 1476 1474 1476 1479 1483 1487 1488 1485 1483 1482 1482 1485 1492 1492 1487 1494 1490 1471 1465 1465 1463 1466 1466 1466 1473 1484 1487 1483 1490 1502 1500 1502 1514 1519 1519 1524 1532 1535 1533 1535 1537 1532 1527 1523 1521 1522 1521 1521 1521 1521 1524 1527 1529 1532 1532 1534 1536
1484 1484 1484 1483 1483 1483 1483 1483 1483 1483 1483 1482 1485 1491 1493 1491 1487 1484 1479 1472 1470 1470 1470 1471 1473 1478 1480 1478 1476 1474 1472 1474 1476 1478 1482 1484 1486 1487 1486 1482 1480 1479 1481 1488 1489 1487 1493 1486 1467 1464 1463 1460 1463 1462 1462 1469 1479 1484 1487 1491 1491 1484 1486 1502 1514 1514 1516 1533 1543 1540 1540 1536 1530 1528 1523 1522 1524 1523 1523 1523 1523 1524 1526 1528 1530 1531 1533 1535
1484 1483 1483 1483 1483 1483 1483 1483 1483 1484 1483 1482 1488 1492 1488 1484 1481 1478 1474 1470 1470 1469 1470 1478 1481 1482 1485 1484 1482 1478 1474 1476 1479 1481 1486 1488 1486 1486 1485 1480 1478 1477 1477 1480 1482 1483 1490 1486 1470 1466 1467 1461 1459 1460 1461 1462 1468 1478 1486 1483 1479 1482 1485 1494 1517 1526 1528 1542 1548 1541 1543 1541 1537 1536 1528 1524 1527 1526 1526 1525 1524 1526 1526 1528 1529 1530 1533 1534
1483 1483 1483 1483 1483 1483 1483 1483 1483 1483 1482 1483 1488 1489 1484 1481 1477 1475 1473 1470 1470 1469 1472 1481 1483 1482 1485 1486 1485 1480 1477 1481 1482 1483 1488 1490 1489 1486 1484 1481 1477 1476 1475 1476 1479 1479 1484 1488 1476 1465 1467 1463 1457 1462 1468 1465 1462 1468 1474 1473 1477 1491 1495 1495 1513 1527 1535 1550 1553 1546 1546 1541 1537 1537 1531 1529 1530 1529 1529 1527 1526 1527 1526 1527 1528 1529 1532 1534
1483 1483 1483 1483 1483 1483 1483 1483 1483 1483 1482 1485 1490 1488 1483 1480 1475 1473 1473 1471 1470 1472 1476 1480 1481 1482 1484 1483 1484 1481 1479 1482 1483 1485 1490 1492 1491 1485 1482 1482 1479 1476 1475 1474 1477 1478 1480 1488 1483 1468 1464 1464 1462 1467 1475 1475 1468 1465 1469 1472 1476 1485 1492 1495 1504 1512 1526 1547 1553 1550 1551 1541 1532 1532 1530 1529 1530 1529 1530 1529 1528 1529 1527 1528 1528 1529 1531 1533
1483 1483 1483 1482 1483 1483 1483 1484 1484 1484 1484 1486 1489 1486 1482 1479 1475 1473 1472 1471 1471 1473 1477 1479 1479 1482 1483 1481 1482 1481 1480 1481 1481 1485 1490 1491 1490 1485 1481 1482 1480 1477 1475 1473 1475 1477 1478 1485 1486 1473 1465 1468 1471 1471 1473 1475 1473 1472 1475 1479 1481 1483 1486 1492 1501 1505 1516 1537 1548 1552 1553 1542 1530 1529 1528 1528 1529 1529 1530 1530 1530 1530 1529 1529 1530 1530 1532 1533
1483 1483 1483 1482 1483 1483 1483 1484 1485 1484 1485 1486 1486 1484 1481 1479 1476 1474 1473 1472 1472 1473 1475 1477 1478 1481 1483 1482 1482 1481 1481 1482 1480 1484 1489 1489 1489 1488 1482 1480 1480 1477 1475 1475 1475 1477 1478 1481 1483 1478 1473 1474 1474 1469 1466 1467 1468 1471 1476 1479 1482 1484 1487 1497 1510 1511 1511 1524 1535 1540 1546 1542 1532 1528 1527 1527 1528 1529 1530 1530 1531 1532 1531 1530 1530 1530 1531 1533
1484 1484 1483 1483 1483 1483 1484 1486 1486 1485 1485 1484 1484 1482 1480 1478 1476 1475 1474 1473 1473 1474 1475 1476 1478 1480 1482 1482 1482 1481 1482 1484 1482 1484 1488 1488 1488 1487 1482 1479 1479 1477 1476 1478 1478 1476 1477 1479 1481 1480 1477 1476 1473 1467 1465 1466 1465 1466 1472 1476 1479 1481 1484 1494 1508 1514 1515 1520 1524 1528 1539 1542 1533 1527 1527 1528 1529 1530 1531 1531 1531 1532 1531 1530 1530 1530 1531 1532
1484 1484 1483 1483 1484 1484 1486 1487 1486 1485 1484 1482 1481 1480 1479 1478 1477 1476 1475 1474 1475 1475 1476 1478 1478 1480 1481 1481 1481 1482 1483 1485 1485 1483 1486 1488 1485 1483 1481 1479 1478 1476 1476 1479 1479 1475 1477 1482 1483 1481 1479 1475 1470 1466 1465 1464 1466 1469 1472 1474 1476 1479 1481 1485 1493 1503 1514 1522 1522 1527 1541 1542 1531 1527 1528 1528 1529 1530 1531 1532 1532 1533 1533 1532 1532 1531 1531 1532
1484 1483 1484 1484 1484 1484 1487 1489 1488 1486 1484 1481 1480 1479 1478 1477 1478 1478 1476 1476 1476 1476 1478 1479 1479 1479 1481 1481 1481 1481 1483 1487 1487 1483 1484 1487 1485 1482 1481 1479 1478 1477 1477 1479 1479 1476 1480 1486 1486 1487 1489 1488 1483 1480 1477 1472 1471 1474 1476 1474 1475 1478 1482 1486 1490 1498 1512 1522 1519 1524 1540 1540 1530 1528 1528 1528 1530 1531 1532 1533 1533 1534 1535 1535 1535 1533 1532 1532
1484 1484 1484 1484 1484 1484 1485 1486 1487 1487 1485 1483 1482 1481 1480 1479 1478 1478 1478 1477 1477 1477 1478 1480 1479 1479 1480 1480 1481 1482 1482 1484 1486 1484 1484 1485 1485 1482 1481 1480 1479 1477 1477 1478 1477 1476 1481 1487 1487 1489 1495 1501 1500 1495 1489 1482 1478 1478 1478 1476 1476 1479 1480 1485 1494 1501 1512 1520 1518 1522 1534 1537 1531 1529 1530 1530 1531 1533 1534 1535 1535 1536 1537 1537 1537 1536 1535 1534
1484 1485 1485 1484 1484 1484 1484 1484 1484 1485 1485 1485 1484 1483 1482 1481 1480 1478 1478 1478 1478 1478 1479 1480 1480 1480 1481 1482 1484 1486 1484 1483 1484 1484 1485 1486 1486 1484 1482 1481 1479 1478 1478 1476 1474 1475 1479 1484 1488 1488 1489 1492 1494 1489 1484 1482 1482 1481 1481 1479 1479 1480 1480 1484 1493 1500 1506 1516 1522 1523 1526 1530 1533 1532 1531 1532 1532 1534 1535 1536 1537 1538 1538 1538 1538 1537 1536 1536
1486 1488 1488 1487 1486 1485 1484 1483 1483 1483 1483 1484 1485 1484 1483 1483 1482 1480 1479 1480 1481 1480 1480 1481 1481 1482 1484 1485 1487 1489 1488 1485 1485 1486 1488 1488 1487 1485 1484 1482 1481 1480 1478 1475 1474 1475 1479 1485 1489 1489 1488 1488 1487 1483 1479 1480 1482 1482 1482 1481 1480 1481 1482 1484 1490 1494 1499 1511 1523 1524 1520 1525 1531 1530 1530 1532 1533 1534 1536 1537 1538 1540 1539 1540 1540 1539 1538 1538
1487 1488 1489 1489 1489 1487 1485 1484 1483 1483 1482 1483 1484 1484 1484 1486 1486 1485 1483 1482 1482 1482 1483 1485 1485 1484 1485 1485 1488 1492 1492 1490 1490 1491 1491 1490 1489 1487 1485 1483 1482 1481 1480 1479 1477 1478 1484 1490 1490 1488 1488 1487 1485 1482 1479 1479 1483 1484 1485 1484 1482 1482 1483 1486 1492 1495 1495 1499 1509 1517 1519 1523 1527 1527 1528 1530 1531 1533 1536 1537 1538 1540 1541 1542 1541 1541 1541 1540
1488 1489 1489 1488 1488 1488 1486 1485 1484 1483 1482 1483 1484 1485 1486 1488 1488 1488 1486 1485 1485 1484 1485 1489 1490 1488 1486 1487 1490 1495 1497 1496 1496 1495 1492 1491 1492 1491 1490 1488 1486 1483 1482 1482 1481 1482 1486 1492 1494 1492 1488 1485 1485 1484 1482 1481 1484 1488 1490 1490 1487 1486 1486 1490 1496 1499 1497 1498 1504 1512 1520 1524 1524 1524 1526 1528 1530 1533 1536 1538 1538 1540 1543 1544 1543 1543 1544 1544
1489 1490 1489 1488 1487 1486 1485 1484 1483 1483 1483 1484 1486 1487 1488 1490 1490 1489 1488 1488 1490 1488 1486 1490 1492 1490 1489 1490 1492 1496 1497 1496 1497 1496 1492 1492 1493 1492 1493 1492 1489 1487 1485 1485 1486 1484 1485 1493 1498 1494 1489 1488 1487 1486 1485 1484 1486 1490 1493 1493 1491 1491 1493 1496 1500 1501 1503 1509 1512 1514 1522 1528 1525 1524 1526 1529 1531 1534 1536 1539 1539 1540 1544 1546 1545 1546 1546 1546
1490 1490 1490 1489 1488 1486 1485 1484 1484 1484 1486 1486 1488 1489 1489 1491 1490 1489 1490 1491 1492 1491 1490 1491 1492 1491 1491 1492 1493 1496 1495 1493 1494 1493 1491 1492 1492 1491 1492 1491 1489 1489 1488 1488 1489 1487 1488 1497 1499 1495 1496 1496 1491 1491 1490 1485 1484 1489 1493 1495 1496 1497 1498 1499 1500 1499 1502 1510 1517 1520 1525 1526 1523 1523 1527 1530 1532 1534 1536 1538 1540 1542 1545 1546 1547 1547 1548 1548
1491 1491 1490 1489 1488 1487 1487 1486 1485 1486 1489 1489 1488 1489 1490 1491 1489 1489 1492 1493 1492 1491 1492 1492 1491 1491 1493 1494 1494 1494 1494 1493 1493 1492 1492 1492 1491 1490 1491 1491 1489 1490 1490 1491 1493 1492 1493 1499 1501 1502 1504 1501 1496 1496 1493 1487 1493 1501 1499 1497 1499 1498 1498 1499 1500 1499 1498 1503 1510 1515 1516 1516 1518 1521 1525 1529 1531 1533 1536 1538 1539 1542 1545 1547 1548 1548 1550 1550